Location: Glasgow
(55.8642°N, 4.2518°W)
Time: 00:27:35
(UTC+00:00)

ISS - Visible Passes

Search period start: 12 December 2017 00:00
Search period end: 22 December 2017 00:00
Orbit: 403 x 407 km, 51.6° (Epoch: 12 December)

Date Brightness Start Highest point End Pass type
(mag) Time Alt. Az. Time Alt. Az. Time Alt. Az.
12 Dec -1.6 17:53:30 10° WSW 17:56:11 23° SSW 17:58:42 11° SSE visible
13 Dec -1.9 17:01:13 10° W 17:04:09 29° SSW 17:07:03 10° SE visible
13 Dec -0.7 18:38:49 10° SW 18:39:53 11° SW 18:40:55 10° SSW visible
14 Dec -0.9 17:45:50 10° WSW 17:47:56 16° SSW 17:50:01 10° S visible
15 Dec -1.2 16:53:19 10° WSW 16:55:55 21° SSW 16:58:29 10° SSE visible
17 Dec -0.6 16:45:43 10° WSW 16:47:33 14° SSW 16:49:22 10° S visible
